Weather in Shalyhyne

Ukraine / Sumi District     51°33′50″N   34°07′36″E
temp.,
°C
wind,
m/s
gust,
m/s
humid.,
%
clouds,
%
prec.,
mm/h
press.,
hPa
HPBL,
m
19 may, wed
wed1900:00+13se379459 0.5 1002152
03:00+11se379734 0.6 1002144
06:00+12sse599799 1.0 1003435
09:00+13sse6987100 1.0 1004662
12:00+16sse567598 0.1 10041073
15:00+18se5567100 0.3 10041150
18:00+15se4785100 1.0 1004357
21:00+12ese3694100 1.9 1004149
20 may, thu
thu2000:00+11sse3697100 1.2 1003197
03:00+11sw3696100 6.4 1003211
06:00+11ssw2497100 2.6 1003169
09:00+11s2499100 6.3 1003268
12:00+12wsw589697 1.3 1005531
15:00+12w6891100 1.4 1007751
18:00+12w588899 0.1 1009817
21:00+11w41189100 0.1 1010586
21 may, fri
fri2100:00+9wsw4995100 0.0 1011180
03:00+8wsw3794100 0.0 1013131
06:00+9w3793100 0.0 1014187
09:00+13nnw4573100 0.0 1015529
12:00+16n4462100 0.0 10161197
15:00+18nne335798 0.0 10161626
18:00+17ne236691 0.0 10161000
21:00+12ene337796 0.1 101722
22 may, sat
sat2200:00+10ne338499 0.0 101741
03:00+9nne3690100 0.0 1017107
06:00+11nne4982100 0.0 1017234
09:00+13ne51081100 0.0 1016455
12:00+17ene6771100 0.0 1016946
15:00+15ene5886100 0.0 1016484
18:00+15ene5885100 0.0 1015584
21:00+12ene51195100 0.0 1014288
23 may, sun
sun2300:00+11ne41097100 0.0 1013240
03:00+12ene3795100 0.1 1012228
06:00+12e3598100 0.0 1010200
09:00+15ssw2291100 0.0 1009362
12:00+18ssw338499 0.0 1008600
15:00+20wsw5771100 0.3 10061418
18:00+16w71183100 0.4 1008700
21:00+13wnw71379100 0.4 1009761